STARLINK-32792, 62504

Orbit data source: Space-Track

STARLINK-32792, 62504 is a payload satellite owned by SpaceX/Seattle (US) in LEO that was launched on Mon, 06 Jan 2025 UTC via an FALCON 9 launch vehicle from the Air Force Eastern Test Range (AFETR). Payload-class satellites include a variety of spacecraft equipped with specific instruments for various scientific and technological missions. These include communications satellites like Starlink; space stations such as the ISS; scientific satellites like the Hubble; Earth observation satellites from companies like Planet Labs, Umbra, and HawkEye 360; GPS; miniature CubeSats for education and research; and military/defense satellites.

Loading next visibility...
Identifier
62504, 2025-003T
Orbit
LEO
Country
Flag of USUS
Related business
Manufacturer
SpaceX/Seattle
Mission
Operational Commercial Communications
Bus & Motor
STARLINK V2M, Unknown motor
Mass
730 kg wet, ~700 kg dry
Launch date (UTC)
2025-01-06 (1 year ago)
Launch vehicle
FALCON 9
Launch site
Air Force Eastern Test Range (AFETR)
Object type
Payload
Rocket body
Debris
Shape & HBR
Box + 2 Pan, 17.7 m
Radar Cross Section
33.884 m², Large (>1 m²)

Expand to show TLE details & history
Last TLE update: 19 hours ago

TLE from 19 hours ago
0 STARLINK-32792
1 62504U 25003T   26171.06611876  .00013741  00000-0  50773-3 0  9990
2 62504  43.0005  70.3707 0001189 294.1280  65.9447 15.27592536 82213
Epoch: 2026-06-20T01:35Z
TLE epoch observation values (Epoch: 2026-06-20T01:35:12.660Z)
Latitude
-0.00005°
Longitude
138.28181°
Altitude
482.455 km
Speed
7.626 km/s
True Right ascension
04h 41m 28s
True Declination
0° 00' 00"
Sunlit
Object was in daylight at epoch
Visualization orbit readout
Latitude
Unknown
Longitude
Unknown
Altitude
Unknown
Speed
Unknown
Apparent Right ascension
Unknown
Apparent Declination
Unknown
Sunlit
N/A
Visualization observer readout
Local Sidereal Time
07:17:18
Azimuth
Unknown
Elevation
Unknown
Doppler factor
Unknown
Orbital elements
Apogee altitude
485.773 km
Perigee altitude
484.141 km
Semi-major axis
6,863.094 km
Eccentricity
0.00012
Inclination
43.0005°
RAAN
70.3707°
Arg. of periapsis
294.128°
True anomaly
65.95714°
Mean anomaly
65.9447°
Eccentric anomaly
65.95092°
Mean motion
3.81736 °/min
Orbital period
94.31 mins
BSTAR
0.00050773
Loading maneuver chart data...
Computing Atmospheric mass density...
Loading historical data...
Loading historical data...
Loading historical data...
Loading historical data...
Loading historical data...
Loading historical data...
Loading historical data...

Documentation

Showing up to 5 results
|